• In Belarus
  • List of Countries
  • For 7 days
  • Water Temperature
  • Satellite Maps
  • Weather Map
  • Weather Widgets
  • user-avatar
    Login

    Hourly Weather Stepanakert

    Today, 26 June, Monday

    Time Temperature Precipitation Wind Pressure Humidity
    00:00 +18°C° 0 mm 2 mps 693 mmHg 74%
    01:00 +19°C° 0 mm 1 mps 693 mmHg 77%
    02:00 +18°C° 0 mm 1 mps 693 mmHg 79%
    03:00 +18°C° 0 mm 1 mps 693 mmHg 81%
    04:00 +19°C° 0 mm 1 mps 694 mmHg 79%
    05:00 +20°C° 0 mm 1 mps 695 mmHg 76%
    06:00 +21°C° 0 mm 1 mps 695 mmHg 74%
    07:00 +23°C° 0 mm 2 mps 695 mmHg 68%
    08:00 +24°C° 0 mm 3 mps 696 mmHg 61%
    09:00 +25°C° 0 mm 3 mps 696 mmHg 55%
    10:00 +26°C° 0 mm 3 mps 696 mmHg 53%
    11:00 +27°C° 0 mm 4 mps 696 mmHg 51%
    12:00 +27°C° 0 mm 4 mps 695 mmHg 49%
    13:00 +28°C° 0 mm 4 mps 695 mmHg 49%
    14:00 +28°C° 0 mm 4 mps 695 mmHg 48%
    15:00 +28°C° 0 mm 4 mps 695 mmHg 48%
    16:00 +28°C° 0 mm 4 mps 695 mmHg 51%
    17:00 +27°C° 0 mm 4 mps 695 mmHg 54%
    18:00 +26°C° 0 mm 3 mps 695 mmHg 57%
    19:00 +24°C° 0 mm 3 mps 695 mmHg 64%
    20:00 +21°C° 0 mm 2 mps 695 mmHg 71%
    21:00 +18°C° 0 mm 2 mps 694 mmHg 78%
    22:00 +19°C° 0 mm 1 mps 694 mmHg 80%
    23:00 +19°C° 0 mm 1 mps 694 mmHg 82%

    Tomorrow, 27 June, Tuesday

    Time Temperature Precipitation Wind Pressure Humidity
    00:00 +18°C° 0 mm 1 mps 694 mmHg 83%
    01:00 +18°C° 0 mm 1 mps 694 mmHg 84%
    02:00 +18°C° 0 mm 1 mps 694 mmHg 85%
    03:00 +16°C° 0 mm 1 mps 694 mmHg 85%
    04:00 +18°C° 0 mm 1 mps 694 mmHg 81%
    05:00 +20°C° 0 mm 1 mps 694 mmHg 78%
    06:00 +19°C° 0 mm 0 mps 695 mmHg 74%
    07:00 +23°C° 0 mm 1 mps 695 mmHg 66%
    08:00 +24°C° 0 mm 1 mps 695 mmHg 59%
    09:00 +26°C° 0 mm 2 mps 695 mmHg 51%
    10:00 +28°C° 0 mm 2 mps 694 mmHg 48%
    11:00 +29°C° 0 mm 2 mps 694 mmHg 45%
    12:00 +30°C° 0 mm 2 mps 694 mmHg 42%
    13:00 +31°C° 0 mm 2 mps 693 mmHg 41%
    14:00 +31°C° 0 mm 2 mps 693 mmHg 41%
    15:00 +33°C° 0 mm 3 mps 692 mmHg 40%
    16:00 +31°C° 0 mm 2 mps 692 mmHg 43%
    17:00 +30°C° 0 mm 2 mps 692 mmHg 45%
    18:00 +30°C° 0 mm 2 mps 692 mmHg 48%
    19:00 +27°C° 0 mm 2 mps 692 mmHg 57%
    20:00 +24°C° 0 mm 1 mps 692 mmHg 65%
    21:00 +21°C° 0 mm 1 mps 691 mmHg 73%
    22:00 +21°C° 0 mm 1 mps 691 mmHg 75%
    23:00 +20°C° 0 mm 1 mps 691 mmHg 77%

    Day after tomorrow, 28 June, Wednesday

    Time Temperature Precipitation Wind Pressure Humidity
    00:00 +20°C° 0 mm 1 mps 691 mmHg 78%
    01:00 +20°C° 0 mm 1 mps 691 mmHg 80%
    02:00 +19°C° 0 mm 1 mps 691 mmHg 81%
    03:00 +17°C° 0 mm 0 mps 691 mmHg 82%
    04:00 +20°C° 0 mm 1 mps 691 mmHg 78%
    05:00 +22°C° 0 mm 1 mps 692 mmHg 74%
    06:00 +24°C° 0 mm 1 mps 692 mmHg 70%
    07:00 +25°C° 0 mm 1 mps 692 mmHg 62%
    08:00 +27°C° 0 mm 1 mps 692 mmHg 54%
    09:00 +29°C° 0 mm 2 mps 692 mmHg 46%
    10:00 +30°C° 0 mm 2 mps 692 mmHg 43%
    11:00 +31°C° 0 mm 2 mps 692 mmHg 40%
    12:00 +34°C° 0 mm 3 mps 692 mmHg 37%
    13:00 +34°C° 0 mm 3 mps 691 mmHg 37%
    14:00 +34°C° 0 mm 3 mps 691 mmHg 37%
    15:00 +34°C° 0 mm 3 mps 690 mmHg 37%
    16:00 +34°C° 0.1 mm 2 mps 690 mmHg 40%
    17:00 +32°C° 0.1 mm 2 mps 690 mmHg 43%
    18:00 +31°C° 0.1 mm 2 mps 690 mmHg 46%
    19:00 +29°C° 0.1 mm 2 mps 690 mmHg 53%
    20:00 +26°C° 0.1 mm 2 mps 690 mmHg 59%
    21:00 +23°C° 0.1 mm 1 mps 690 mmHg 65%
    22:00 +23°C° 0 mm 1 mps 690 mmHg 66%
    23:00 +22°C° 0 mm 1 mps 690 mmHg 67%

    29 June, Thursday

    Time Temperature Precipitation Wind Pressure Humidity
    00:00 +21°C° 0 mm 1 mps 690 mmHg 68%
    01:00 +21°C° 0 mm 1 mps 690 mmHg 70%
    02:00 +21°C° 0 mm 1 mps 690 mmHg 71%
    03:00 +20°C° 0 mm 1 mps 690 mmHg 72%
    04:00 +22°C° 0 mm 1 mps 690 mmHg 69%
    05:00 +23°C° 0 mm 1 mps 691 mmHg 65%
    06:00 +22°C° 0 mm 0 mps 691 mmHg 62%
    07:00 +26°C° 0 mm 1 mps 692 mmHg 53%
    08:00 +28°C° 0 mm 1 mps 692 mmHg 45%
    09:00 +30°C° 0 mm 2 mps 692 mmHg 36%
    10:00 +31°C° 0 mm 2 mps 692 mmHg 34%
    11:00 +33°C° 0 mm 3 mps 692 mmHg 32%
    12:00 +34°C° 0 mm 3 mps 692 mmHg 30%
    13:00 +34°C° 0.1 mm 3 mps 691 mmHg 29%
    14:00 +34°C° 0.1 mm 3 mps 691 mmHg 29%
    15:00 +34°C° 0.1 mm 3 mps 691 mmHg 28%
    16:00 +34°C° 0.1 mm 3 mps 691 mmHg 30%
    17:00 +33°C° 0.1 mm 3 mps 690 mmHg 32%
    18:00 +31°C° 0.1 mm 3 mps 690 mmHg 34%
    19:00 +28°C° 0 mm 2 mps 690 mmHg 39%
    20:00 +25°C° 0 mm 2 mps 690 mmHg 44%
    21:00 +22°C° 0 mm 1 mps 690 mmHg 49%
    22:00 +22°C° 0 mm 1 mps 690 mmHg 48%
    23:00 +22°C° 0 mm 1 mps 690 mmHg 47%

    30 June, Friday

    Time Temperature Precipitation Wind Pressure Humidity
    00:00 +20°C° 0 mm 2 mps 690 mmHg 46%
    01:00 +20°C° 0 mm 2 mps 690 mmHg 46%
    02:00 +20°C° 0 mm 2 mps 690 mmHg 46%
    03:00 +19°C° 0 mm 2 mps 690 mmHg 46%
    04:00 +20°C° 0 mm 2 mps 690 mmHg 45%
    05:00 +21°C° 0 mm 2 mps 691 mmHg 43%
    06:00 +23°C° 0 mm 2 mps 691 mmHg 41%
    07:00 +25°C° 0 mm 2 mps 691 mmHg 35%
    08:00 +28°C° 0 mm 2 mps 692 mmHg 29%
    09:00 +30°C° 0 mm 2 mps 692 mmHg 24%
    10:00 +31°C° 0 mm 2 mps 692 mmHg 23%
    11:00 +32°C° 0 mm 2 mps 692 mmHg 22%
    12:00 +34°C° 0 mm 3 mps 692 mmHg 21%
    13:00 +34°C° 0 mm 3 mps 691 mmHg 21%
    14:00 +34°C° 0 mm 3 mps 691 mmHg 22%
    15:00 +34°C° 0 mm 4 mps 691 mmHg 22%
    16:00 +33°C° 0 mm 4 mps 691 mmHg 24%
    17:00 +33°C° 0 mm 4 mps 691 mmHg 27%
    18:00 +32°C° 0 mm 4 mps 691 mmHg 30%
    19:00 +28°C° 0 mm 3 mps 691 mmHg 35%
    20:00 +25°C° 0 mm 3 mps 691 mmHg 40%
    21:00 +21°C° 0 mm 2 mps 691 mmHg 46%
    22:00 +21°C° 0 mm 2 mps 691 mmHg 45%
    23:00 +20°C° 0 mm 2 mps 691 mmHg 44%

    1 July, Saturday

    Time Temperature Precipitation Wind Pressure Humidity
    00:00 +20°C° 0 mm 2 mps 691 mmHg 43%
    01:00 +20°C° 0 mm 2 mps 691 mmHg 42%
    02:00 +20°C° 0 mm 2 mps 692 mmHg 41%
    03:00 +19°C° 0 mm 2 mps 692 mmHg 40%
    04:00 +20°C° 0 mm 2 mps 692 mmHg 40%
    05:00 +21°C° 0 mm 2 mps 693 mmHg 40%
    06:00 +21°C° 0 mm 2 mps 693 mmHg 40%
    07:00 +25°C° 0 mm 2 mps 694 mmHg 36%
    08:00 +27°C° 0 mm 2 mps 694 mmHg 32%
    09:00 +29°C° 0 mm 2 mps 694 mmHg 28%
    10:00 +30°C° 0 mm 2 mps 694 mmHg 27%
    11:00 +31°C° 0 mm 3 mps 694 mmHg 26%
    12:00 +33°C° 0 mm 4 mps 694 mmHg 25%
    13:00 +33°C° 0 mm 4 mps 694 mmHg 25%
    14:00 +34°C° 0 mm 4 mps 693 mmHg 26%
    15:00 +34°C° 0 mm 4 mps 693 mmHg 26%
    16:00 +33°C° 0 mm 4 mps 693 mmHg 28%
    17:00 +32°C° 0 mm 4 mps 693 mmHg 30%
    18:00 +30°C° 0 mm 4 mps 693 mmHg 33%
    19:00 +27°C° 0 mm 4 mps 693 mmHg 39%
    20:00 +25°C° 0 mm 3 mps 693 mmHg 46%
    21:00 +21°C° 0 mm 2 mps 693 mmHg 52%
    22:00 +20°C° 0 mm 2 mps 693 mmHg 52%
    23:00 +20°C° 0 mm 2 mps 693 mmHg 52%
    Show more